Regional Weather Roundup
Issued by NWS

Home | Current Version | Previous Version | Graphics & Text | Print | Product List | Glossary On
Versions: 1 2 3 4 5 6 7 8 9 10 11 12 13 14 15 16 17 18 19 20 21 22 23 24 25 26 27 28 29 30 31 32 33 34 35 36 37 38 39 40 41 42 43 44 45 46 47 48 49 50
874
ASUS43 KDTX 091810
RWRMI
MICHIGAN HOURLY REGIONAL WEATHER ROUNDUP
NATIONAL WEATHER SERVICE DETROIT/PONTIAC MI
100 PM EST TUE FEB 09 2016

NOTE: "FAIR" INDICATES FEW OR NO CLOUDS BELOW 12,000 FEET WITH NO
SIGNIFICANT WEATHER AND/OR OBSTRUCTION TO VISIBILITY.

MIZ047>049-052>055-059>063-066>070-074>076-081>083-091900-
SOUTHEAST LOWER MICHIGAN

CITY           SKY/WX    TMP DP  RH WIND       PRES   REMARKS
ADRIAN         CLOUDY    28  22  78 NW12      29.62F WCI  18
6HR MIN TEMP:  27; 6HR MAX TEMP:  30; 6HR PCP: TRACE;

ALMA           CLOUDY    29  23  78 NW9G17    29.62F WCI  21
ANN ARBOR      FLURRIES  28  22  78 NW18      29.59F WCI  15
BAD AXE        LGT SNOW  28  26  92 NW14G21   29.51F VSB 1   WCI  17
CARO           CLOUDY    27  25  93 W12       29.55S VSB 1/2 WCI  16
DETROIT CITY   LGT SNOW  30  25  81 W12G18    29.57F WCI  20
6HR MIN TEMP:  29; 6HR MAX TEMP:  32; 6HR PCP:  0.03;

DETROIT        LGT SNOW  30  25  81 W14       29.59F WCI  19
6HR MIN TEMP:  30; 6HR MAX TEMP:  31; 6HR PCP:  0.08;

FLINT          LGT SNOW  28  21  75 W16       29.58F WCI  16
6HR MIN TEMP:  28; 6HR MAX TEMP:  30; 6HR PCP:  0.08;

GROSSE ILE     CLOUDY    32  27  80 W9G16     29.57F HAZE    WCI  24
HILLSDALE      CLOUDY    26  20  80 NW18      29.61F WCI  12
6HR MIN TEMP:  26; 6HR MAX TEMP:  29;

HOWELL         CLOUDY    27  24  86 W12       29.59F FOG     WCI  17
6HR MIN TEMP:  26; 6HR MAX TEMP:  30;


CITY           SKY/WX    TMP DP  RH WIND       PRES   REMARKS
JACKSON        CLOUDY    26  19  74 W17       29.61F WCI  13
6HR MIN TEMP:  26; 6HR MAX TEMP:  30; 6HR PCP: TRACE;

LAMBERTVILLE   CLOUDY    30  25  83 NW9G18    29.62S WCI  22
6HR MIN TEMP:  28; 6HR MAX TEMP:  31;

LANSING        CLOUDY    26  19  74 W17G23    29.63F WCI  13
6HR MIN TEMP:  25; 6HR MAX TEMP:  28; 6HR PCP: TRACE;

LAPEER         LGT SNOW  27  25  91 W12G17    29.55S WCI  17
6HR MIN TEMP:  27; 6HR MAX TEMP:  29;

MASON          CLOUDY    26  21  82 NW10      29.62F WCI  16
MONROE         CLOUDY    31  26  80 W13       29.59F HAZE    WCI  22
6HR MIN TEMP:  30; 6HR MAX TEMP:  32;

MT. CLEMENS    LGT SNOW  28  27  93 W15       29.54F VSB 1   WCI  17
6HR MIN TEMP:  28; 6HR MAX TEMP:  33; 6HR PCP:  0.04;

PONTIAC        LGT SNOW  26  23  88 W18       29.55F VSB 3/4 WCI  13
6HR MIN TEMP:  26; 6HR MAX TEMP:  30; 6HR PCP: TRACE;

PORT HOPE        N/A     30  28  92 NW18G31   29.48S WCI  18
6HR MIN TEMP:  29; 6HR MAX TEMP:  31; 6HR PCP:  0.08;

PORT HURON     LGT SNOW  28  25  86 W6        29.53S VSB 1   WCI  22
TRI CITIES     SNOW      29  23  78 NW20      29.58F VSB 1/2 WCI  16
6HR MIN TEMP:  28; 6HR MAX TEMP:  29; 6HR PCP:  0.01;

MIDLAND        LGT SNOW  28  23  79 NW12G20   29.58F WCI  18
6HR MIN TEMP:  27; 6HR MAX TEMP:  28;

TROY           LGT SNOW  30  26  85 W13       29.58F WCI  20
SAGINAW HB     LGT SNOW  30  28  93 W12       29.57F VSB 3/4 WCI  21
$$
MIZ043>046-050>051-056>058-064>065-071>073-077>080-091900-
SOUTHWEST LOWER MICHIGAN

CITY           SKY/WX    TMP DP  RH WIND       PRES   REMARKS
BATTLE CREEK   CLOUDY    26  17  68 NW15      29.66S WCI  14
6HR MIN TEMP:  25; 6HR MAX TEMP:  27;

BENTON HARBOR  LGT SNOW  25  18  74 NW14G21   29.75S WCI  13
6HR MIN TEMP:  25; 6HR MAX TEMP:  29; 6HR PCP: TRACE;

BIG RAPIDS     CLOUDY    25  21  85 NW14      29.63F WCI  13
6HR MIN TEMP:  24; 6HR MAX TEMP:  25;

COLDWATER      CLOUDY    28  20  74 NW16      29.65S WCI  15
6HR MIN TEMP:  27; 6HR MAX TEMP:  31;

FREMONT        CLOUDY    25  19  76 NW15G21   29.68S WCI  13
HOLLAND        FLURRIES  27  20  75 NW12G21   29.71F WCI  17
6HR MIN TEMP:  26; 6HR MAX TEMP:  27; 6HR PCP:  0.01;

GRAND RAPIDS   FLURRIES  27  19  72 NW14G24   29.67F WCI  16
6HR MIN TEMP:  26; 6HR MAX TEMP:  27; 6HR PCP: TRACE;

IONIA          CLOUDY    27  20  75 W14G22    29.63F WCI  16
6HR MIN TEMP:  25; 6HR MAX TEMP:  27;

KALAMAZOO      CLOUDY    27  19  72 NW20      29.67F WCI  13
6HR MIN TEMP:  26; 6HR MAX TEMP:  29; 6HR PCP: TRACE;

LUDINGTON      LGT SNOW  24  19  83 N12G24    29.72S WCI  12
6HR MIN TEMP:  23; 6HR MAX TEMP:  24;

MARSHALL       CLOUDY    27  19  73 NW10G20   29.64S WCI  17
6HR MIN TEMP:  26; 6HR MAX TEMP:  30;

MOUNT PLEASANT CLOUDY    29  20  69 NW12G18   29.61S WCI  19
6HR MIN TEMP:  26; 6HR MAX TEMP:  29;

MUSKEGON       FLURRIES  27  17  66 NW16      29.71F WCI  15
6HR MIN TEMP:  25; 6HR MAX TEMP:  28; 6HR PCP: TRACE;

SOUTH HAVEN    LGT SNOW  26  21  82 NW10G20   29.73S WCI  16
$$
MIZ016>042-091900-
NORTHERN LOWER MICHIGAN

CITY           SKY/WX    TMP DP  RH WIND       PRES   REMARKS
ALPENA         LGT SNOW  29  23  78 NW10G18   29.56F WCI  20
6HR MIN TEMP:  26; 6HR MAX TEMP:  29; 6HR PCP:  0.01;

BEAVER ISLAND  CLOUDY    25  20  81 N10G16    29.66S WCI  14
6HR MIN TEMP:  22; 6HR MAX TEMP:  25;

BELLAIRE       LGT SNOW  26  21  81 NW6       29.65F WCI  20
6HR MIN TEMP:  25; 6HR MAX TEMP:  26;

CADILLAC       CLOUDY    23  18  81 NW14G22   29.60F WCI  11
CHARLEVOIX     LGT SNOW  26  23  87 NW13G20   29.67F WCI  15
6HR MIN TEMP:  24; 6HR MAX TEMP:  26;

FRANKFORT      FLURRIES  25  18  76 NW12G17   29.70F WCI  14
GAYLORD        LGT SNOW  26  20  77 NW10G18   29.56F WCI  16
6HR MIN TEMP:  22; 6HR MAX TEMP:  26; 6HR PCP: TRACE;

GRAYLING       LGT SNOW  25  19  77 NW13G21   29.59F WCI  14
6HR MIN TEMP:  23; 6HR MAX TEMP:  25;

HARBOR SPRINGS CLOUDY    25  20  81 NW8       29.62S HAZE    WCI  16
HOUGHTON LAKE  CLOUDY    25  18  74 NW17G25   29.59F WCI  12
6HR MIN TEMP:  23; 6HR MAX TEMP:  26; 6HR PCP: TRACE;

MANISTEE       CLOUDY    25  16  68 NW16      29.70F WCI  12
OSCODA         LGT SNOW  28  25  88 NW18      29.52F WCI  16
6HR MIN TEMP:  26; 6HR MAX TEMP:  28;

PELLSTON       CLOUDY    23  19  85 NW21      29.63S WCI   8
6HR MIN TEMP:  23; 6HR MAX TEMP:  25; 6HR PCP: TRACE;

ROGERS CITY    CLOUDY    28  25  87 NW13      29.58F WCI  18
TRAVERSE CITY  FLURRIES  26  18  71 NW16      29.66F WCI  14
6HR MIN TEMP:  26; 6HR MAX TEMP:  27; 6HR PCP: TRACE;

$$
MIZ007>008-015-091900-
EASTERN UPPER MICHIGAN

CITY           SKY/WX    TMP DP  RH WIND       PRES   REMARKS
KINROSS        CLOUDY    27  21  80 NW15G22   29.59S WCI  15
6HR MIN TEMP:  25; 6HR MAX TEMP:  27;

MACKINAC ISLAN LGT SNOW  25  22  89 NW12G17   29.60F WCI  14
6HR MIN TEMP:  24; 6HR MAX TEMP:  25;

NEWBERRY       LGT SNOW  20  15  80 NW10G18   29.65S WCI   9
6HR MIN TEMP:  20; 6HR MAX TEMP:  23;

S. S. MARIE    CLOUDY    27  17  66 N7        29.60F WCI  19
6HR MIN TEMP:  26; 6HR MAX TEMP:  29; 6HR PCP:  0.03;

MUNISING         N/A     19  14  81 N22G32    29.74F WCI   2
6HR MIN TEMP:  19; 6HR MAX TEMP:  20; 6HR PCP:  0.01;

$$
MIZ004>006-011>014-085-091900-
CENTRAL UPPER MICHIGAN

CITY           SKY/WX    TMP DP  RH WIND       PRES   REMARKS
MANISTIQUE     FLURRIES  22  14  71 N17G30    29.68F WCI   7
6HR MIN TEMP:  20; 6HR MAX TEMP:  22;

ESCANABA       CLOUDY    19  10  68 N14G25    29.75F WCI   6
6HR MIN TEMP:  16; 6HR MAX TEMP:  19;

MENOMINEE      CLOUDY    18   7  62 N17G25    29.79S WCI   2
6HR MIN TEMP:  12; 6HR MAX TEMP:  18;

SAWYER-GWINN   SNOW      14  10  85 N17G24    29.74S VSB 1/2 WCI  -3
$$
MIZ001>003-009>011-084-091900-
WESTERN UPPER MICHIGAN

CITY           SKY/WX    TMP DP  RH WIND       PRES   REMARKS
IRON MOUNTAIN  MIX PCPN  14   4  64 NW17G32   29.78S WCI  -3
6HR MIN TEMP:  11; 6HR MAX TEMP:  14; 6HR PCP: TRACE;

HOUGHTON       HVY SNOW  10   4  76 N20G33    29.87S VSB 1/4 WCI  -9
6HR MIN TEMP:  10; 6HR MAX TEMP:  11; 6HR PCP: TRACE;

COPPER HARBOR    N/A     15  12  88 NE28G39   29.86S WCI  -5
6HR MIN TEMP:  15; 6HR MAX TEMP:  17;

IRONWOOD       CLOUDY    10   3  72 N14G23    29.92S WCI  -5
6HR MIN TEMP:  10; 6HR MAX TEMP:  10;

$$

ABBREVIATIONS USED IN REMARKS
   TC - TEMPERATURE IN CELSIUS
  WCI - WIND CHILL INDEX
   HX - HEAT INDEX
  VSB - VISIBILITY





USA.gov is the U.S. government's official web portal to all federal, state and local government web resources and services.